Location: *
(53.4003°S, 165.3236°W)
Time: 02:54:19
(UTC+00:00)

ISS - Pass Details

Date: 11 December 2023
Orbit: 415 x 422 km, 51.6° (Epoch: 25 February)

Event Time Altitude Azimuth Distance (km) Brightness Sun altitude
Rises 13:12:13 0° 260° (W) 2,476 -0.1 -8.0°
Reaches altitude 10° 13:14:35 10° 272° (W) 1,590 -1.2 -7.8°
Maximum altitude 13:17:38 27° 331° (NNW) 903 -2.6 -7.6°
Drops below altitude 10° 13:20:38 10° 29° (NNE) 1,555 -1.1 -7.3°
Sets 13:22:55 0° 42° (NE) 2,409 0.0 -7.1°
